Location: �mondeville
(49.4591°N, 1.3431°W)
Time: 10:42:43
(UTC+00:00)

Cosmos 2237 Rocket - Pass Details

Date: 22 October 2019
Orbit: 833 x 851 km, 71.0° (Epoch: 17 November)

Event Time Altitude Azimuth Distance (km) Brightness Sun altitude
Exits shadow 04:15:39 48° 218° (SW) 1,105 2.4 -23.5°
Maximum altitude 04:17:20 82° 298° (WNW) 864 2.1 -23.3°
Drops below altitude 10° 04:23:05 10° 27° (NNE) 2,489 5.1 -22.4°
Sets 04:25:33 0° 29° (NNE) 3,429 5.9 -22.0°
